Location: Newark
(18.0634°N, 63.0549°W)
Time: 14:59:55
(UTC+00:00)

OTV 5 (USA 277) - Visible Passes

Search period start: 21 October 2019 00:00
Search period end: 31 October 2019 00:00
Orbit: 310 x 324 km, 54.5° (Epoch: 17 October)

Date Brightness Start Highest point End Pass type
(mag) Time Alt. Az. Time Alt. Az. Time Alt. Az.
22 Oct ? 23:12:30 10° SSW 23:12:45 12° SSW 23:12:45 12° SSW visible
23 Oct ? 08:51:35 11° N 08:53:15 17° NE 08:55:09 10° E visible
23 Oct ? 23:27:07 10° WSW 23:27:56 17° WSW 23:27:56 17° WSW visible
24 Oct ? 09:06:43 32° NNW 09:07:48 81° NE 09:10:30 10° SE visible
24 Oct ? 22:07:54 10° S 22:09:58 20° ESE 22:12:03 10° ENE visible
25 Oct ? 09:21:54 18° WSW 09:22:15 19° WSW 09:24:15 10° S visible
25 Oct ? 22:21:43 10° SW 22:24:24 75° NW 22:27:07 10° NNE visible
26 Oct ? 22:37:10 10° W 22:38:58 16° NW 22:40:46 10° N visible
